When you browse on this site, cookies collect data to enhance your experience and personalize the content and advertising you see.
Visit our Privacy Policy to learn more. By continuing to use the site, you agree to this use of cookies and data.
  • In Hungary
  • List of Countries
  • For 7 days
  • Water Temperature
  • Weather Map
  • News
  • Weather Widgets
  • user-avatar
    Login

    Hourly Weather Maliivka

    Today, 21 November, Thursday

    Time Temperature Precipitation Wind Pressure Humidity
    00:00 -3°C° 0 mm 7 mps 763 mmHg 68%
    01:00 -4°C° 0 mm 7 mps 763 mmHg 68%
    02:00 -4°C° 0 mm 7 mps 764 mmHg 71%
    03:00 -6°C° 0 mm 7 mps 764 mmHg 69%
    04:00 -7°C° 0 mm 7 mps 764 mmHg 67%
    05:00 -8°C° 0 mm 8 mps 764 mmHg 64%
    06:00 -8°C° 0 mm 8 mps 764 mmHg 61%
    07:00 -10°C° 0 mm 8 mps 765 mmHg 58%
    08:00 -10°C° 0 mm 9 mps 765 mmHg 57%
    09:00 -9°C° 0 mm 9 mps 765 mmHg 52%
    10:00 -9°C° 0 mm 9 mps 766 mmHg 47%
    11:00 -8°C° 0 mm 9 mps 766 mmHg 42%
    12:00 -8°C° 0 mm 9 mps 765 mmHg 41%
    13:00 -6°C° 0 mm 9 mps 765 mmHg 39%
    14:00 -6°C° 0 mm 9 mps 765 mmHg 38%
    15:00 -7°C° 0 mm 8 mps 765 mmHg 37%
    16:00 -8°C° 0 mm 8 mps 765 mmHg 36%
    17:00 -10°C° 0 mm 8 mps 765 mmHg 34%
    18:00 -10°C° 0 mm 8 mps 766 mmHg 33%
    19:00 -11°C° 0 mm 8 mps 766 mmHg 31%
    20:00 -11°C° 0 mm 8 mps 766 mmHg 30%
    21:00 -11°C° 0 mm 8 mps 766 mmHg 31%
    22:00 -12°C° 0 mm 8 mps 766 mmHg 32%
    23:00 -12°C° 0 mm 8 mps 766 mmHg 34%

    Tomorrow, 22 November, Friday

    Time Temperature Precipitation Wind Pressure Humidity
    00:00 -12°C° 0 mm 7 mps 766 mmHg 35%
    01:00 -12°C° 0 mm 7 mps 766 mmHg 36%
    02:00 -12°C° 0 mm 7 mps 766 mmHg 37%
    03:00 -12°C° 0 mm 7 mps 766 mmHg 40%
    04:00 -12°C° 0 mm 8 mps 765 mmHg 42%
    05:00 -12°C° 0 mm 8 mps 765 mmHg 45%
    06:00 -12°C° 0 mm 8 mps 765 mmHg 44%
    07:00 -12°C° 0 mm 9 mps 765 mmHg 44%
    08:00 -12°C° 0 mm 9 mps 765 mmHg 44%
    09:00 -10°C° 0 mm 9 mps 765 mmHg 40%
    10:00 -9°C° 0 mm 9 mps 765 mmHg 35%
    11:00 -6°C° 0 mm 9 mps 765 mmHg 31%
    12:00 -6°C° 0 mm 9 mps 764 mmHg 30%
    13:00 -5°C° 0 mm 9 mps 764 mmHg 29%
    14:00 -5°C° 0 mm 9 mps 764 mmHg 28%
    15:00 -6°C° 0 mm 8 mps 764 mmHg 31%
    16:00 -7°C° 0 mm 7 mps 763 mmHg 34%
    17:00 -8°C° 0 mm 7 mps 763 mmHg 37%
    18:00 -8°C° 0 mm 7 mps 763 mmHg 38%
    19:00 -9°C° 0 mm 7 mps 763 mmHg 39%
    20:00 -10°C° 0 mm 8 mps 764 mmHg 40%
    21:00 -9°C° 0 mm 7 mps 763 mmHg 40%
    22:00 -9°C° 0 mm 7 mps 763 mmHg 40%
    23:00 -9°C° 0 mm 7 mps 763 mmHg 39%

    Day after tomorrow, 23 November, Saturday

    Time Temperature Precipitation Wind Pressure Humidity
    00:00 -10°C° 0 mm 6 mps 763 mmHg 40%
    01:00 -10°C° 0 mm 6 mps 763 mmHg 40%
    02:00 -10°C° 0 mm 6 mps 763 mmHg 41%
    03:00 -10°C° 0 mm 6 mps 762 mmHg 41%
    04:00 -11°C° 0 mm 7 mps 762 mmHg 42%
    05:00 -11°C° 0 mm 7 mps 762 mmHg 43%
    06:00 -11°C° 0 mm 7 mps 762 mmHg 42%
    07:00 -10°C° 0 mm 8 mps 762 mmHg 41%
    08:00 -10°C° 0 mm 8 mps 762 mmHg 40%
    09:00 -7°C° 0 mm 8 mps 762 mmHg 36%
    10:00 -6°C° 0 mm 8 mps 762 mmHg 32%
    11:00 -4°C° 0 mm 9 mps 762 mmHg 28%
    12:00 -4°C° 0 mm 8 mps 761 mmHg 27%
    13:00 -2°C° 0 mm 8 mps 761 mmHg 25%
    14:00 -2°C° 0 mm 8 mps 761 mmHg 23%
    15:00 -3°C° 0 mm 7 mps 761 mmHg 25%
    16:00 -4°C° 0 mm 7 mps 761 mmHg 28%
    17:00 -5°C° 0 mm 6 mps 761 mmHg 30%
    18:00 -6°C° 0 mm 6 mps 761 mmHg 31%
    19:00 -7°C° 0 mm 7 mps 761 mmHg 33%
    20:00 -7°C° 0 mm 7 mps 761 mmHg 34%
    21:00 -7°C° 0 mm 7 mps 761 mmHg 35%
    22:00 -7°C° 0 mm 7 mps 761 mmHg 36%
    23:00 -8°C° 0 mm 6 mps 761 mmHg 37%

    24 November, Sunday

    Time Temperature Precipitation Wind Pressure Humidity
    00:00 -8°C° 0 mm 6 mps 760 mmHg 39%
    01:00 -8°C° 0 mm 6 mps 760 mmHg 41%
    02:00 -8°C° 0 mm 6 mps 760 mmHg 43%
    03:00 -8°C° 0 mm 6 mps 760 mmHg 46%
    04:00 -8°C° 0 mm 6 mps 760 mmHg 49%
    05:00 -8°C° 0 mm 6 mps 759 mmHg 52%
    06:00 -8°C° 0 mm 7 mps 760 mmHg 53%
    07:00 -8°C° 0 mm 7 mps 760 mmHg 54%
    08:00 -7°C° 0 mm 7 mps 760 mmHg 56%
    09:00 -6°C° 0 mm 7 mps 759 mmHg 52%
    10:00 -4°C° 0 mm 8 mps 759 mmHg 49%
    11:00 -2°C° 0 mm 8 mps 759 mmHg 45%
    12:00 -1°C° 0 mm 7 mps 759 mmHg 45%
    13:00 -1°C° 0 mm 7 mps 759 mmHg 44%
    14:00 0°C° 0 mm 7 mps 758 mmHg 43%
    15:00 -2°C° 0 mm 6 mps 758 mmHg 47%
    16:00 -3°C° 0 mm 6 mps 758 mmHg 51%
    17:00 -4°C° 0 mm 5 mps 758 mmHg 55%
    18:00 -4°C° 0 mm 5 mps 758 mmHg 56%
    19:00 -5°C° 0 mm 6 mps 758 mmHg 57%
    20:00 -5°C° 0 mm 6 mps 758 mmHg 57%
    21:00 -5°C° 0 mm 6 mps 758 mmHg 58%
    22:00 -5°C° 0 mm 5 mps 758 mmHg 59%
    23:00 -6°C° 0 mm 5 mps 758 mmHg 60%

    25 November, Monday

    Time Temperature Precipitation Wind Pressure Humidity
    00:00 -6°C° 0 mm 5 mps 758 mmHg 63%
    01:00 -6°C° 0 mm 5 mps 758 mmHg 65%
    02:00 -5°C° 0 mm 4 mps 758 mmHg 68%
    03:00 -5°C° 0 mm 4 mps 757 mmHg 69%
    04:00 -5°C° 0 mm 4 mps 757 mmHg 71%
    05:00 -5°C° 0 mm 4 mps 757 mmHg 73%
    06:00 -6°C° 0 mm 5 mps 757 mmHg 73%
    07:00 -6°C° 0 mm 5 mps 757 mmHg 73%
    08:00 -5°C° 0 mm 6 mps 757 mmHg 73%
    09:00 -4°C° 0 mm 6 mps 757 mmHg 68%
    10:00 -2°C° 0 mm 6 mps 757 mmHg 64%
    11:00 -1°C° 0 mm 7 mps 757 mmHg 60%
    12:00 +1°C° 0 mm 6 mps 757 mmHg 60%
    13:00 +1°C° 0 mm 6 mps 756 mmHg 59%
    14:00 +1°C° 0 mm 6 mps 756 mmHg 58%
    15:00 -1°C° 0 mm 6 mps 756 mmHg 62%
    16:00 -1°C° 0 mm 5 mps 756 mmHg 66%
    17:00 -2°C° 0 mm 5 mps 756 mmHg 70%
    18:00 -2°C° 0 mm 5 mps 756 mmHg 69%
    19:00 -2°C° 0 mm 5 mps 755 mmHg 69%
    20:00 -2°C° 0 mm 5 mps 755 mmHg 68%
    21:00 -4°C° 0 mm 5 mps 755 mmHg 70%
    22:00 -4°C° 0 mm 5 mps 755 mmHg 72%
    23:00 -4°C° 0 mm 4 mps 755 mmHg 74%

    26 November, Tuesday

    Time Temperature Precipitation Wind Pressure Humidity
    00:00 -4°C° 0 mm 4 mps 755 mmHg 75%
    01:00 -4°C° 0 mm 4 mps 755 mmHg 77%
    02:00 -5°C° 0 mm 4 mps 754 mmHg 78%
    03:00 -5°C° 0 mm 4 mps 754 mmHg 77%
    04:00 -6°C° 0 mm 5 mps 754 mmHg 76%
    05:00 -6°C° 0 mm 5 mps 754 mmHg 75%
    06:00 -6°C° 0 mm 5 mps 754 mmHg 75%
    07:00 -6°C° 0 mm 5 mps 753 mmHg 76%
    08:00 -5°C° 0 mm 5 mps 753 mmHg 76%
    09:00 -4°C° 0 mm 5 mps 753 mmHg 74%
    10:00 -2°C° 0 mm 5 mps 753 mmHg 73%
    11:00 -1°C° 0 mm 5 mps 753 mmHg 71%
    12:00 0°C° 0 mm 5 mps 753 mmHg 70%
    13:00 0°C° 0 mm 5 mps 752 mmHg 69%
    14:00 0°C° 0 mm 5 mps 752 mmHg 68%
    15:00 0°C° 0 mm 5 mps 752 mmHg 73%
    16:00 0°C° 0 mm 5 mps 752 mmHg 78%
    17:00 0°C° 0 mm 5 mps 752 mmHg 82%
    18:00 0°C° 0 mm 4 mps 752 mmHg 84%
    19:00 0°C° 0 mm 4 mps 752 mmHg 85%
    20:00 0°C° 0 mm 4 mps 752 mmHg 86%
    21:00 0°C° 0 mm 4 mps 752 mmHg 87%
    22:00 0°C° 0 mm 4 mps 752 mmHg 88%
    23:00 0°C° 0 mm 4 mps 752 mmHg 89%
    Show more